QPF
0.00 0.00 0.00 0.00 0.00 0.00 0.00 0.00 0.00 0.00 0.00 0.00 0.00 0.00 0.00 0.00 0.00 0.00 0.00 0.00 0.00 0.00 0.00 0.01 0.01 0.03 0.07 0.10 0.12 0.18 0.22 0.05
0.00 0.00 0.00 0.00 0.00 0.00 0.00 0.00 0.00 0.00 0.00 0.00 0.00 0.00 0.00 0.00 0.00 0.00 0.00 0.00 0.00 0.00 0.00 0.00 0.00 0.00 0.01 0.02 0.03 0.02 0.00 0.01
0.00 0.00 0.00 0.00 0.00 0.00 0.00 0.00 0.00 0.00 0.00 0.00 0.00 0.00 0.00 0.00 0.00 0.00 0.00 0.00 0.00 0.00 0.00 0.00 0.00 0.00 0.00 0.00 0.00 0.00 0.00 0.00
0.00 0.00 0.00 0.00 0.00 0.00 0.00 0.00 0.00 0.00 0.00 0.00 0.00 0.00 0.00 0.00 0.00 0.00 0.00 0.00 0.00 0.00 0.00 0.00 0.00 0.00 0.00 0.00 0.00 0.00 0.00 0.00
0.00 0.00 0.00 0.00 0.00 0.00 0.00 0.00 0.00 0.00 0.00 0.00 0.00 0.00 0.00 0.00 0.00 0.00 0.00 0.00 0.00 0.00 0.00 0.00 0.00 0.00 0.00 0.00 0.00 0.00 0.00 0.01
0.00 0.00 0.00 0.00 0.00 0.00 0.00 0.00 0.00 0.00 0.00 0.00 0.00 0.00 0.00 0.00 0.00 0.00 0.00 0.00 0.00 0.00 0.00 0.00 0.00 0.00 0.00 0.00 0.00 0.00 0.00 0.00
0.00 0.00 0.00 0.00 0.00 0.00 0.00 0.00 0.00 0.00 0.00 0.00 0.00 0.00 0.00 0.00 0.00 0.00 0.00 0.00 0.00 0.00 0.00 0.00 0.00 0.00 0.00 0.00 0.00 0.00 0.00 0.00
0.00 0.00 0.00 0.00 0.00 0.00 0.00 0.00 0.00 0.00 0.00 0.00 0.00 0.00 0.00 0.00 0.00 0.00 0.00 0.00 0.00 0.00 0.00 0.00 0.00 0.00 0.00 0.00 0.00 0.00 0.00 0.00
0.00 0.00 0.00 0.00 0.00 0.00 0.00 0.00 0.00 0.00 0.00 0.00 0.00 0.00 0.00 0.00 0.00 0.00 0.00 0.00 0.00 0.00 0.00 0.00 0.00 0.00 0.00 0.00 0.00 0.00 0.00 0.00
0.00 0.00 0.00 0.00 0.00 0.00 0.00 0.00 0.00 0.00 0.00 0.00 0.00 0.00 0.00 0.00 0.00 0.00 0.00 0.00 0.00 0.00 0.00 0.00 0.00 0.00 0.00 0.00 0.00 0.00 0.00 0.00
0.00 0.00 0.00 0.00 0.00 0.00 0.00 0.00 0.00 0.00 0.00 0.00 0.00 0.00 0.00 0.00 0.00 0.00 0.00 0.00 0.00 0.00 0.00 0.00 0.00 0.00 0.00 0.00 0.00 0.00 0.00 0.00
0.00 0.00 0.00 0.00 0.00 0.00 0.00 0.00 0.00 0.00 0.00 0.00 0.00 0.00 0.00 0.00 0.00 0.00 0.00 0.00 0.00 0.00 0.00 0.00 0.00 0.00 0.00 0.00 0.00 0.00 0.00 0.00
0.00 0.00 0.00 0.00 0.00 0.00 0.00 0.00 0.00 0.00 0.00 0.00 0.00 0.00 0.00 0.00 0.00 0.00 0.00 0.00 0.00 0.00 0.00 0.00 0.00 0.00 0.00 0.00 0.00 0.00 0.00 0.00
0.00 0.00 0.00 0.00 0.00 0.00 0.00 0.00 0.00 0.00 0.00 0.00 0.00 0.00 0.00 0.00 0.00 0.00 0.00 0.00 0.00 0.00 0.00 0.01 0.00 0.00 0.00 0.00 0.00 0.00 0.00 0.00
0.00 0.00 0.00 0.00 0.00 0.00 0.00 0.00 0.00 0.00 0.00 0.00 0.00 0.00 0.01 0.01 0.00 0.00 0.00 0.00 0.00 0.00 0.00 0.01 0.01 0.01 0.01 0.01 0.00 0.00 0.00 0.00
0.00 0.00 0.00 0.00 0.00 0.00 0.00 0.00 0.00 0.00 0.00 0.00 0.00 0.00 0.01 0.01 0.01 0.01 0.02 0.01 0.01 0.01 0.01 0.01 0.02 0.03 0.04 0.03 0.01 0.01 0.01 0.01
0.00 0.00 0.00 0.00 0.00 0.00 0.00 0.00 0.00 0.00 0.00 0.00 0.00 0.00 0.00 0.01 0.02 0.03 0.03 0.02 0.03 0.04 0.05 0.05 0.06 0.09 0.10 0.08 0.07 0.05 0.04 0.04
0.00 0.00 0.00 0.00 0.00 0.00 0.00 0.00 0.00 0.00 0.00 0.00 0.00 0.00 0.00 0.00 0.00 0.00 0.00 0.01 0.03 0.05 0.07 0.10 0.12 0.20 0.24 0.20 0.17 0.16 0.13 0.11
0.00 0.00 0.00 0.00 0.00 0.00 0.00 0.00 0.00 0.00 0.00 0.00 0.00 0.00 0.00 0.00 0.00 0.00 0.00 0.00 0.00 0.00 0.02 0.06 0.08 0.15 0.21 0.26 0.24 0.28 0.25 0.22
MSLP
1019.19 1019.04 1018.94 1018.76 1018.58 1018.27 1018.06 1017.78 1017.42 1016.74 1016.10 1015.55 1015.12 1015.00 1014.88 1014.94 1015.04 1015.28 1015.40 1015.15 1014.66 1014.18 1013.57 1013.09 1012.26 1011.85 1011.70 1011.83 1012.13 1012.48 1011.89 1011.75
1019.35 1019.42 1019.39 1019.24 1019.18 1019.04 1018.93 1018.65 1018.44 1017.81 1017.15 1016.47 1015.87 1015.77 1015.69 1015.57 1015.84 1016.03 1015.85 1015.80 1015.27 1014.38 1013.63 1013.25 1012.95 1012.51 1012.05 1011.95 1011.84 1011.40 1011.61 1011.63
1019.54 1019.60 1019.69 1019.69 1019.81 1019.83 1019.70 1019.61 1019.42 1019.02 1018.58 1018.43 1017.95 1017.23 1016.43 1016.08 1016.40 1016.45 1016.32 1016.10 1015.85 1015.19 1014.74 1014.14 1013.84 1013.43 1012.91 1012.40 1011.85 1011.50 1011.20 1011.20
1019.68 1019.83 1020.01 1020.16 1020.08 1020.20 1020.23 1020.28 1020.19 1019.98 1019.58 1018.96 1018.35 1017.75 1017.24 1016.66 1016.80 1016.73 1016.75 1016.35 1016.37 1015.89 1015.35 1014.80 1014.11 1013.96 1013.50 1013.03 1012.58 1011.89 1011.10 1010.30
1019.76 1019.91 1020.16 1020.42 1020.63 1020.74 1020.71 1020.65 1020.62 1020.40 1020.15 1019.64 1019.27 1018.82 1018.27 1018.13 1017.73 1017.20 1016.77 1016.40 1016.67 1016.21 1015.65 1015.11 1014.70 1014.24 1013.77 1013.19 1012.78 1012.41 1011.44 1010.28
1019.99 1020.49 1020.91 1021.24 1021.34 1021.33 1021.11 1020.97 1020.97 1020.84 1020.58 1020.25 1019.75 1019.38 1019.01 1018.42 1017.99 1017.30 1017.03 1016.72 1016.79 1016.38 1016.00 1015.49 1014.89 1014.48 1013.73 1013.70 1013.19 1012.61 1012.09 1011.26
1020.41 1020.90 1021.23 1021.45 1021.59 1021.67 1021.56 1021.26 1021.32 1021.36 1021.05 1020.69 1020.24 1019.83 1019.36 1018.90 1018.58 1017.93 1017.38 1016.72 1016.67 1016.34 1016.10 1015.54 1014.95 1014.58 1013.75 1013.29 1013.14 1012.69 1012.02 1011.29
1020.76 1021.12 1021.33 1021.62 1021.87 1021.74 1021.64 1021.60 1021.45 1021.37 1021.19 1021.00 1020.50 1020.20 1019.76 1019.40 1019.01 1018.28 1017.88 1017.03 1016.48 1016.13 1015.59 1014.84 1014.63 1014.27 1013.81 1013.23 1012.93 1012.49 1011.73 1011.27
1021.12 1021.63 1021.90 1022.16 1022.07 1022.06 1021.88 1022.11 1021.39 1021.42 1021.33 1021.40 1020.75 1020.39 1019.89 1019.38 1019.09 1018.65 1018.09 1017.30 1016.71 1015.96 1015.12 1014.86 1014.45 1013.93 1013.51 1013.00 1012.70 1012.15 1011.42 1010.82
1021.68 1022.25 1022.49 1022.49 1022.53 1022.54 1022.68 1022.48 1021.93 1021.92 1021.80 1021.60 1020.95 1020.69 1020.08 1019.56 1019.24 1018.70 1018.07 1017.39 1016.62 1015.77 1015.30 1014.86 1014.09 1013.40 1013.04 1012.62 1012.17 1011.65 1010.93 1010.13
1022.00 1022.41 1022.69 1022.91 1023.11 1023.11 1022.93 1022.86 1022.62 1022.56 1022.31 1022.02 1021.60 1021.03 1020.57 1020.02 1019.48 1018.90 1018.23 1017.51 1016.83 1016.05 1015.47 1014.76 1013.95 1013.41 1012.92 1012.50 1011.72 1010.87 1010.24 1009.66
1022.11 1022.64 1022.88 1023.22 1023.43 1023.43 1023.36 1023.32 1023.28 1022.91 1022.73 1022.52 1022.06 1021.53 1021.02 1020.28 1019.67 1019.06 1018.51 1017.71 1016.91 1016.37 1015.72 1014.89 1014.16 1013.34 1012.72 1012.02 1011.24 1010.51 1009.61 1008.99
1022.34 1022.75 1022.99 1023.31 1023.67 1023.71 1023.71 1023.80 1023.65 1023.60 1023.38 1023.03 1022.51 1022.07 1021.31 1020.62 1020.27 1019.65 1019.07 1018.28 1017.32 1016.58 1016.07 1015.54 1014.73 1013.77 1012.77 1011.95 1011.04 1010.23 1009.44 1008.66
1022.75 1023.06 1023.29 1023.70 1024.08 1024.08 1024.20 1024.19 1024.04 1023.93 1023.63 1023.08 1022.80 1022.38 1021.71 1021.23 1020.64 1019.98 1019.41 1018.79 1017.88 1017.28 1016.68 1015.74 1014.81 1013.89 1012.94 1011.75 1010.60 1009.59 1008.60 1007.75
1022.83 1023.26 1023.75 1024.18 1024.47 1024.53 1024.60 1024.57 1024.41 1024.27 1023.69 1023.71 1023.53 1023.03 1022.61 1021.95 1021.29 1020.62 1019.87 1019.26 1018.68 1018.12 1017.34 1016.32 1015.22 1014.35 1013.33 1012.14 1010.74 1009.46 1008.18 1007.03
1023.08 1023.58 1024.05 1024.57 1024.74 1024.83 1024.96 1025.04 1024.86 1024.67 1024.46 1024.48 1024.33 1023.78 1023.45 1022.86 1022.09 1021.33 1020.65 1019.90 1019.27 1018.67 1017.88 1017.14 1015.97 1014.85 1013.91 1012.62 1011.36 1010.09 1008.67 1007.34
1023.46 1024.06 1024.41 1024.96 1025.01 1025.12 1025.32 1025.28 1025.15 1025.20 1025.14 1025.23 1025.03 1024.52 1024.05 1023.29 1022.40 1021.62 1020.92 1020.52 1020.19 1019.72 1018.84 1018.03 1016.80 1015.53 1014.51 1013.33 1012.25 1011.22 1010.03 1008.59
1023.77 1024.30 1024.89 1025.19 1025.35 1025.53 1025.60 1025.61 1025.57 1025.61 1025.67 1025.56 1025.25 1024.88 1024.11 1023.32 1022.92 1022.52 1022.08 1021.41 1021.04 1020.38 1019.72 1018.91 1017.63 1016.33 1015.29 1014.32 1013.26 1012.35 1011.47 1010.27
1024.07 1024.75 1025.14 1025.38 1025.62 1025.74 1025.82 1025.82 1025.82 1025.88 1025.81 1025.74 1025.54 1025.07 1024.55 1024.17 1023.72 1023.21 1022.76 1022.22 1021.78 1021.18 1020.57 1019.69 1018.62 1017.11 1016.25 1015.27 1014.13 1013.33 1012.52 1011.41
Thickness
5587 5588 5588 5590 5591 5592 5592 5593 5594 5598 5602 5606 5609 5610 5612 5612 5612 5612 5611 5612 5616 5619 5622 5628 5639 5645 5647 5645 5647 5643 5633 5644
5575 5575 5574 5574 5573 5573 5573 5573 5572 5575 5579 5583 5588 5589 5590 5591 5588 5588 5591 5591 5595 5603 5607 5611 5619 5628 5632 5632 5638 5644 5642 5645
5560 5558 5557 5555 5552 5550 5549 5547 5547 5548 5551 5550 5552 5558 5565 5569 5568 5568 5569 5572 5574 5581 5585 5590 5595 5604 5612 5616 5623 5629 5633 5635
5545 5542 5537 5534 5532 5528 5525 5523 5521 5520 5523 5528 5533 5539 5543 5549 5551 5551 5549 5554 5555 5560 5565 5570 5578 5580 5589 5596 5602 5610 5618 5630
5531 5527 5521 5516 5510 5507 5506 5505 5504 5504 5504 5508 5510 5514 5519 5522 5526 5531 5536 5539 5538 5543 5549 5553 5558 5565 5572 5579 5584 5591 5603 5616
5517 5510 5502 5496 5493 5491 5491 5491 5489 5490 5491 5492 5495 5496 5500 5505 5508 5516 5520 5524 5524 5527 5531 5536 5542 5548 5557 5560 5567 5574 5582 5594
5501 5494 5489 5485 5482 5478 5477 5477 5475 5474 5476 5477 5479 5481 5484 5488 5491 5496 5504 5510 5512 5513 5518 5522 5528 5533 5542 5548 5552 5560 5569 5579
5489 5484 5478 5472 5468 5467 5465 5464 5464 5464 5464 5465 5467 5467 5471 5473 5476 5482 5487 5495 5501 5504 5510 5517 5518 5522 5528 5534 5539 5545 5557 5565
5476 5469 5463 5457 5456 5455 5456 5451 5455 5455 5452 5449 5455 5457 5460 5464 5466 5470 5475 5482 5488 5495 5503 5503 5506 5511 5517 5523 5527 5533 5543 5553
5460 5453 5448 5445 5443 5441 5439 5439 5443 5441 5439 5440 5443 5445 5449 5452 5454 5458 5464 5471 5478 5485 5488 5492 5498 5503 5507 5511 5516 5523 5531 5542
5445 5440 5436 5432 5429 5428 5426 5426 5427 5426 5426 5428 5431 5433 5435 5438 5442 5446 5452 5458 5464 5471 5474 5480 5487 5491 5493 5496 5504 5512 5520 5528
5436 5431 5426 5421 5418 5416 5413 5412 5411 5412 5412 5413 5416 5420 5424 5429 5433 5436 5440 5446 5453 5457 5460 5465 5470 5476 5480 5485 5491 5499 5508 5515
5425 5420 5417 5412 5407 5405 5402 5399 5398 5397 5397 5399 5402 5405 5411 5417 5418 5422 5426 5431 5436 5441 5444 5446 5450 5456 5464 5470 5478 5485 5493 5502
5411 5409 5405 5400 5394 5392 5388 5386 5385 5385 5386 5390 5391 5394 5399 5401 5404 5408 5411 5416 5421 5423 5425 5430 5435 5440 5446 5454 5464 5474 5485 5494
5403 5397 5392 5385 5381 5378 5375 5374 5374 5375 5380 5377 5377 5381 5383 5387 5390 5393 5397 5400 5402 5402 5405 5411 5416 5419 5425 5432 5444 5456 5470 5484
5391 5385 5379 5373 5369 5367 5365 5362 5362 5364 5365 5363 5363 5367 5368 5370 5375 5379 5382 5384 5385 5386 5388 5390 5395 5401 5406 5413 5422 5432 5447 5462
5377 5372 5367 5360 5357 5355 5352 5351 5351 5351 5351 5349 5350 5353 5355 5359 5365 5368 5371 5370 5369 5368 5370 5372 5377 5384 5389 5395 5402 5410 5421 5436
5365 5359 5351 5345 5342 5340 5338 5337 5338 5337 5337 5338 5341 5344 5349 5355 5356 5356 5356 5357 5357 5358 5357 5358 5363 5369 5372 5376 5383 5391 5399 5410
5352 5345 5339 5334 5330 5328 5325 5324 5324 5325 5328 5329 5332 5337 5341 5344 5346 5347 5348 5349 5348 5349 5349 5351 5354 5361 5361 5366 5372 5376 5382 5395